Location: Gwatt
(46.7204°N, 7.6223°E)
Time: 08:48:52
(UTC+00:00)

Vanguard 2 - Pass Details

Date: 23 January 2021
Orbit: 552 x 2938 km, 32.9° (Epoch: 24 February)

Event Time Altitude Azimuth Distance (km) Brightness Sun altitude
Rises 18:31:25 0° 242° (WSW) 2,876 11.6 -22.3°
Reaches altitude 10° 18:34:03 10° 223° (SW) 2,138 10.4 -22.8°
Maximum altitude 18:37:26 19° 178° (S) 1,882 9.5 -23.4°
Enters shadow 18:39:22 16° 154° (SSE) 2,188 9.6 -23.7°
Drops below altitude 10° 18:41:46 10° 136° (SE) 2,838 - -24.1°
Sets 18:46:01 0° 121° (ESE) 4,251 - -24.8°
